OBJECT E, 69586

Orbit data source: Space-Track

You're viewing an Uncataloged Satellite

Recently launched and/or uncataloged satellites may have evolving metadata. Metadata may include but not limited to: Owner, Maufacturer, Bus, Motor, and Mission.

OBJECT E, 69586 is a satellite owned by Centispace (CN) in LEO that was launched on Wed, 17 Jun 2026 UTC via a KUAIZHOU-11 launch vehicle from the Jiuquan Satellite Launch Center, China (JSC). Unknown objects in Earth's orbit typically refer to objects detected orbiting the Earth but have not yet been identified or cataloged. These objects could be anything from previously untracked satellites, spent rocket stages, debris from satellite collisions, or even natural meteoroids temporarily captured by Earth's gravity.

Loading next visibility...
Identifier
69586, 2026-138E
Orbit
LEO
Country
Flag of CNCN / PRC
Related business
Manufacturer
HITSAT
Mission
Operational spacecraft
Bus & Motor
WK01H, Unknown motor
Mass
140 kg wet, 140 kg dry
Launch date (UTC)
2026-06-17 (2 days ago)
Launch vehicle
KUAIZHOU-11
Launch site
Jiuquan Satellite Launch Center, China (JSC)
Object type
Unknown
Shape & HBR
Unknown
Radar Cross Section
RCS unknown

Expand to show TLE details & history
Last TLE update: 16 hours ago

TLE from 16 hours ago
0 OBJECT E
1 69586U 26138E   26170.11805421  .00000122  00000-0  13903-3 0  9996
2 69586  55.1434 274.0220 0007970 282.0805  77.9276 14.15995160   293
Epoch: 2026-06-19T02:49Z
TLE epoch observation values (Epoch: 2026-06-19T02:49:59.883Z)
Latitude
-0.00005°
Longitude
-35.82917°
Altitude
838.785 km
Speed
7.435 km/s
True Right ascension
18h 16m 05s
True Declination
0° 00' 00"
Sunlit
Object was in full shadow at epoch
Visualization orbit readout
Latitude
Unknown
Longitude
Unknown
Altitude
Unknown
Speed
Unknown
Apparent Right ascension
Unknown
Apparent Declination
Unknown
Sunlit
N/A
Visualization observer readout
Local Sidereal Time
05:55:18
Azimuth
Unknown
Elevation
Unknown
Doppler factor
Unknown
Orbital elements
Apogee altitude
844.624 km
Perigee altitude
833.12 km
Semi-major axis
7,217.009 km
Eccentricity
0.0008
Inclination
55.1434°
RAAN
274.022°
Arg. of periapsis
282.0805°
True anomaly
78.01693°
Mean anomaly
77.9276°
Eccentric anomaly
77.97226°
Mean motion
3.54003 °/min
Orbital period
101.69 mins
BSTAR
0.00013903
Loading maneuver chart data...
Computing Atmospheric mass density...
Loading historical data...
Loading historical data...
Loading historical data...
Loading historical data...
Loading historical data...
Loading historical data...
Loading historical data...

Documentation

Showing up to 5 results
|